Time,TemperatureF,DewpointF,PressureIn,WindDirection,WindDirectionDegrees,WindSpeedMPH,WindSpeedGustMPH,Humidity,HourlyPrecipIn,Conditions,Clouds,dailyrainin,SoftwareType,DateUTC
2015-04-27 00:00:00,42.1,27.5,29.93,NNE,23,1.1,2.0,56,0.00,,,0.00,WUHU216HW,2015-04-27 05:00:00,
2015-04-27 00:05:00,41.9,27.3,29.94,North,0,1.1,2.0,56,0.00,,,0.00,WUHU216HW,2015-04-27 05:05:00,
2015-04-27 00:10:00,41.8,27.5,29.94,NNE,23,1.1,2.0,57,0.00,,,0.00,WUHU216HW,2015-04-27 05:10:00,
2015-04-27 00:15:00,41.8,27.5,29.94,NNE,23,0.9,2.2,57,0.00,,,0.00,WUHU216HW,2015-04-27 05:15:00,
2015-04-27 00:20:00,41.6,27.9,29.94,North,0,0.9,2.2,58,0.00,,,0.00,WUHU216HW,2015-04-27 05:20:00,
2015-04-27 00:25:00,41.6,27.9,29.94,NE,45,0.4,2.2,58,0.00,,,0.00,WUHU216HW,2015-04-27 05:25:00,
2015-04-27 00:30:00,41.6,27.9,29.94,NE,45,1.1,1.8,58,0.00,,,0.00,WUHU216HW,2015-04-27 05:30:00,
2015-04-27 00:35:00,41.4,27.7,29.94,NE,45,2.0,2.2,58,0.00,,,0.00,WUHU216HW,2015-04-27 05:35:00,
2015-04-27 00:40:00,41.4,28.2,29.94,NNE,23,1.8,2.2,59,0.00,,,0.00,WUHU216HW,2015-04-27 05:40:00,
2015-04-27 00:45:00,41.4,28.6,29.95,NE,45,1.1,2.7,60,0.00,,,0.00,WUHU216HW,2015-04-27 05:45:00,
2015-04-27 00:50:00,41.2,28.5,29.95,NNE,23,0.4,2.7,60,0.00,,,0.00,WUHU216HW,2015-04-27 05:50:00,
2015-04-27 00:55:00,41.0,29.0,29.94,NNE,23,1.3,2.5,62,0.00,,,0.00,WUHU216HW,2015-04-27 05:55:00,
2015-04-27 01:00:00,41.0,29.0,29.94,North,0,0.4,2.5,62,0.00,,,0.00,WUHU216HW,2015-04-27 06:00:00,
2015-04-27 01:05:00,40.7,28.6,29.95,North,0,0.9,2.2,62,0.00,,,0.00,WUHU216HW,2015-04-27 06:05:00,
2015-04-27 01:10:00,40.7,28.6,29.95,North,0,1.6,2.0,62,0.00,,,0.00,WUHU216HW,2015-04-27 06:10:00,
2015-04-27 01:15:00,40.3,28.3,29.95,NNE,23,1.1,2.0,62,0.00,,,0.00,WUHU216HW,2015-04-27 06:15:00,
2015-04-27 01:20:00,40.3,27.9,29.95,NNE,23,0.4,1.8,61,0.00,,,0.00,WUHU216HW,2015-04-27 06:20:00,
2015-04-27 01:25:00,40.3,28.3,29.94,North,0,0.0,1.3,62,0.00,,,0.00,WUHU216HW,2015-04-27 06:25:00,
2015-04-27 01:30:00,40.3,27.9,29.94,NNW,338,0.0,0.4,61,0.00,,,0.00,WUHU216HW,2015-04-27 06:30:00,
2015-04-27 01:35:00,40.3,27.9,29.95,NW,315,0.7,1.1,61,0.00,,,0.00,WUHU216HW,2015-04-27 06:35:00,
2015-04-27 01:40:00,40.3,28.3,29.95,NW,315,2.2,2.2,62,0.00,,,0.00,WUHU216HW,2015-04-27 06:40:00,
2015-04-27 01:45:00,40.3,27.9,29.95,ENE,68,0.2,2.2,61,0.00,,,0.00,WUHU216HW,2015-04-27 06:45:00,
2015-04-27 01:50:00,40.5,28.1,29.95,NNE,23,0.2,2.2,61,0.00,,,0.00,WUHU216HW,2015-04-27 06:50:00,
2015-04-27 01:55:00,40.5,28.1,29.95,NW,315,0.0,0.4,61,0.00,,,0.00,WUHU216HW,2015-04-27 06:55:00,
2015-04-27 02:00:00,40.5,28.4,29.95,WNW,293,0.9,0.9,62,0.00,,,0.00,WUHU216HW,2015-04-27 07:00:00,
2015-04-27 02:05:00,40.3,28.3,29.95,NNW,338,0.0,0.9,62,0.00,,,0.00,WUHU216HW,2015-04-27 07:05:00,
2015-04-27 02:15:00,40.0,27.9,29.95,NNW,338,0.2,0.7,62,0.00,,,0.00,WUHU216HW,2015-04-27 07:15:00,
2015-04-27 02:20:00,39.8,28.2,29.95,NNW,338,0.2,0.2,63,0.00,,,0.00,WUHU216HW,2015-04-27 07:20:00,
2015-04-27 02:25:00,39.6,28.0,29.94,North,0,0.0,0.4,63,0.00,,,0.00,WUHU216HW,2015-04-27 07:25:00,
2015-04-27 02:30:00,39.2,27.6,29.95,NNW,338,0.2,0.4,63,0.00,,,0.00,WUHU216HW,2015-04-27 07:30:00,
2015-04-27 02:35:00,39.2,27.6,29.95,NW,315,0.0,0.4,63,0.00,,,0.00,WUHU216HW,2015-04-27 07:35:00,
2015-04-27 02:40:00,39.2,27.6,29.95,NW,315,0.0,0.4,63,0.00,,,0.00,WUHU216HW,2015-04-27 07:40:00,
2015-04-27 02:45:00,38.9,27.6,29.94,NNW,338,0.0,0.7,64,0.00,,,0.00,WUHU216HW,2015-04-27 07:45:00,
2015-04-27 02:50:00,38.7,27.9,29.94,North,0,0.4,0.7,65,0.00,,,0.00,WUHU216HW,2015-04-27 07:50:00,
2015-04-27 02:55:00,38.5,27.4,29.95,WNW,293,0.0,0.9,64,0.00,,,0.00,WUHU216HW,2015-04-27 07:55:00,
2015-04-27 03:00:00,38.5,27.4,29.95,NW,315,0.4,0.9,64,0.00,,,0.00,WUHU216HW,2015-04-27 08:00:00,
2015-04-27 03:05:00,38.9,27.6,29.95,NW,315,0.0,0.7,64,0.00,,,0.00,WUHU216HW,2015-04-27 08:05:00,
2015-04-27 03:10:00,39.1,27.8,29.95,NW,315,0.0,0.7,64,0.00,,,0.00,WUHU216HW,2015-04-27 08:10:00,
2015-04-27 03:15:00,39.1,27.8,29.95,NW,315,0.4,0.4,64,0.00,,,0.00,WUHU216HW,2015-04-27 08:15:00,
2015-04-27 03:20:00,39.1,27.8,29.95,NW,315,0.0,0.4,64,0.00,,,0.00,WUHU216HW,2015-04-27 08:20:00,
2015-04-27 03:25:00,38.9,28.0,29.95,West,270,0.2,0.4,65,0.00,,,0.00,WUHU216HW,2015-04-27 08:25:00,
2015-04-27 03:30:00,38.7,28.3,29.95,West,270,0.0,0.7,66,0.00,,,0.00,WUHU216HW,2015-04-27 08:30:00,
2015-04-27 03:35:00,38.5,28.1,29.95,WNW,293,0.4,0.7,66,0.00,,,0.00,WUHU216HW,2015-04-27 08:35:00,
2015-04-27 03:40:00,38.5,27.7,29.95,WNW,293,0.0,0.7,65,0.00,,,0.00,WUHU216HW,2015-04-27 08:40:00,
2015-04-27 03:45:00,38.5,28.1,29.95,WNW,293,0.0,0.7,66,0.00,,,0.00,WUHU216HW,2015-04-27 08:45:00,
2015-04-27 03:50:00,38.5,28.1,29.95,WNW,293,0.0,0.4,66,0.00,,,0.00,WUHU216HW,2015-04-27 08:50:00,
2015-04-27 03:55:00,38.5,28.1,29.95,WNW,293,0.0,0.4,66,0.00,,,0.00,WUHU216HW,2015-04-27 08:55:00,
2015-04-27 04:00:00,38.5,28.1,29.94,WNW,293,0.0,0.2,66,0.00,,,0.00,WUHU216HW,2015-04-27 09:00:00,
2015-04-27 04:05:00,38.3,28.3,29.94,NW,315,0.0,0.4,67,0.00,,,0.00,WUHU216HW,2015-04-27 09:05:00,
2015-04-27 04:10:00,38.2,27.7,29.94,NW,315,0.4,0.4,66,0.00,,,0.00,WUHU216HW,2015-04-27 09:10:00,
2015-04-27 04:15:00,38.3,28.3,29.94,NW,315,0.0,0.4,67,0.00,,,0.00,WUHU216HW,2015-04-27 09:15:00,
2015-04-27 04:20:00,38.7,28.6,29.94,NW,315,0.0,0.4,67,0.00,,,0.00,WUHU216HW,2015-04-27 09:20:00,
2015-04-27 04:25:00,38.7,28.6,29.94,NW,315,0.4,0.4,67,0.00,,,0.00,WUHU216HW,2015-04-27 09:25:00,
2015-04-27 04:30:00,38.7,28.6,29.94,West,270,0.2,0.4,67,0.00,,,0.00,WUHU216HW,2015-04-27 09:30:00,
2015-04-27 04:35:00,38.7,28.6,29.94,West,270,0.4,0.4,67,0.00,,,0.00,WUHU216HW,2015-04-27 09:35:00,
2015-04-27 04:40:00,38.5,28.8,29.94,West,270,0.4,1.1,68,0.00,,,0.00,WUHU216HW,2015-04-27 09:40:00,
2015-04-27 04:45:00,38.5,28.8,29.94,West,270,0.7,1.1,68,0.00,,,0.00,WUHU216HW,2015-04-27 09:45:00,
2015-04-27 04:50:00,38.2,28.5,29.94,WNW,293,0.2,0.9,68,0.00,,,0.00,WUHU216HW,2015-04-27 09:50:00,
2015-04-27 04:55:00,38.2,28.5,29.94,WNW,293,0.0,0.7,68,0.00,,,0.00,WUHU216HW,2015-04-27 09:55:00,
2015-04-27 05:00:00,38.0,28.7,29.94,West,270,0.7,1.1,69,0.00,,,0.00,WUHU216HW,2015-04-27 10:00:00,
2015-04-27 05:05:00,37.8,28.5,29.94,West,270,0.7,1.3,69,0.00,,,0.00,WUHU216HW,2015-04-27 10:05:00,
2015-04-27 05:10:00,37.4,28.6,29.94,West,270,0.2,1.3,70,0.00,,,0.00,WUHU216HW,2015-04-27 10:10:00,
2015-04-27 05:15:00,37.3,28.8,29.94,WNW,293,0.4,1.6,71,0.00,,,0.00,WUHU216HW,2015-04-27 10:15:00,
2015-04-27 05:20:00,37.6,29.1,29.94,WNW,293,0.4,1.6,71,0.00,,,0.00,WUHU216HW,2015-04-27 10:20:00,
2015-04-27 05:25:00,37.8,29.3,29.94,West,270,0.7,0.9,71,0.00,,,0.00,WUHU216HW,2015-04-27 10:25:00,
2015-04-27 05:30:00,37.8,29.0,29.94,West,270,0.4,1.6,70,0.00,,,0.00,WUHU216HW,2015-04-27 10:30:00,
2015-04-27 05:35:00,38.0,29.1,29.94,West,270,0.4,1.6,70,0.00,,,0.00,WUHU216HW,2015-04-27 10:35:00,
2015-04-27 05:40:00,37.8,29.0,29.94,WNW,293,0.4,1.1,70,0.00,,,0.00,WUHU216HW,2015-04-27 10:40:00,
2015-04-27 05:45:00,37.8,29.0,29.94,WNW,293,0.4,1.1,70,0.00,,,0.00,WUHU216HW,2015-04-27 10:45:00,
2015-04-27 05:50:00,37.6,28.8,29.94,West,270,0.4,1.8,70,0.00,,,0.00,WUHU216HW,2015-04-27 10:50:00,
2015-04-27 06:00:00,38.0,29.4,29.94,NW,315,0.9,1.8,71,0.00,,,0.00,WUHU216HW,2015-04-27 11:00:00,
2015-04-27 06:05:00,38.2,29.3,29.94,WNW,293,2.5,2.5,70,0.00,,,0.00,WUHU216HW,2015-04-27 11:05:00,
2015-04-27 06:10:00,38.5,29.6,29.95,WNW,293,0.2,2.5,70,0.00,,,0.00,WUHU216HW,2015-04-27 11:10:00,
2015-04-27 06:15:00,38.7,29.8,29.95,WNW,293,0.4,2.5,70,0.00,,,0.00,WUHU216HW,2015-04-27 11:15:00,
2015-04-27 06:20:00,38.9,29.5,29.95,West,270,1.1,1.1,69,0.00,,,0.00,WUHU216HW,2015-04-27 11:20:00,
2015-04-27 06:25:00,39.2,29.9,29.95,NW,315,2.0,2.0,69,0.00,,,0.00,WUHU216HW,2015-04-27 11:25:00,
2015-04-27 06:30:00,39.4,30.1,29.96,WNW,293,0.4,2.0,69,0.00,,,0.00,WUHU216HW,2015-04-27 11:30:00,
2015-04-27 06:35:00,39.6,29.9,29.96,West,270,1.1,2.0,68,0.00,,,0.00,WUHU216HW,2015-04-27 11:35:00,
2015-04-27 06:40:00,39.6,29.9,29.96,West,270,0.2,1.1,68,0.00,,,0.00,WUHU216HW,2015-04-27 11:40:00,
2015-04-27 06:45:00,40.0,30.3,29.96,NW,315,1.8,1.8,68,0.00,,,0.00,WUHU216HW,2015-04-27 11:45:00,
2015-04-27 06:50:00,40.1,30.4,29.97,NW,315,0.4,2.9,68,0.00,,,0.00,WUHU216HW,2015-04-27 11:50:00,
2015-04-27 06:55:00,40.3,30.2,29.96,West,270,0.2,2.9,67,0.00,,,0.00,WUHU216HW,2015-04-27 11:55:00,
2015-04-27 07:00:00,40.1,30.0,29.97,SW,225,1.3,1.8,67,0.00,,,0.00,WUHU216HW,2015-04-27 12:00:00,
2015-04-27 07:05:00,39.8,29.6,29.97,West,270,0.4,1.8,67,0.00,,,0.00,WUHU216HW,2015-04-27 12:05:00,
2015-04-27 07:10:00,39.4,30.1,29.97,West,270,0.0,1.3,69,0.00,,,0.00,WUHU216HW,2015-04-27 12:10:00,
2015-04-27 07:15:00,39.2,29.9,29.97,SW,225,0.4,0.9,69,0.00,,,0.00,WUHU216HW,2015-04-27 12:15:00,
2015-04-27 07:20:00,39.4,30.4,29.98,West,270,0.4,0.7,70,0.00,,,0.00,WUHU216HW,2015-04-27 12:20:00,
2015-04-27 07:25:00,39.4,30.4,29.98,SW,225,0.9,0.9,70,0.00,,,0.00,WUHU216HW,2015-04-27 12:25:00,
2015-04-27 07:30:00,39.6,30.6,29.98,West,270,0.4,0.9,70,0.00,,,0.00,WUHU216HW,2015-04-27 12:30:00,
2015-04-27 07:35:00,39.8,30.8,29.98,WNW,293,0.9,0.9,70,0.00,,,0.00,WUHU216HW,2015-04-27 12:35:00,
2015-04-27 07:40:00,40.0,31.0,29.98,West,270,0.0,0.9,70,0.00,,,0.00,WUHU216HW,2015-04-27 12:40:00,